Location: Gwatt
(46.7204°N, 7.6223°E)
Time: 16:20:24
(UTC+00:00)

deb Explorer IX - Pass Details

Date: 30 January 2021
Orbit: 537 x 1102 km, 38.8° (Epoch: 04 March)

Event Time Altitude Azimuth Distance (km) Brightness Sun altitude
Rises 17:30:01 0° 262° (W) 3,824 ? -10.5°
Reaches altitude 10° 17:33:01 10° 256° (WSW) 2,810 ? -11.0°
Maximum altitude 17:39:15 39° 190° (S) 1,366 ? -12.0°
Drops below altitude 10° 17:44:43 10° 123° (ESE) 2,461 ? -12.9°
Enters shadow 17:45:12 - 121° (ESE) 2,620 ? -13.0°
Sets 17:47:12 0° 115° (ESE) 3,302 - -13.3°
